Estación de El Carmen

Ultimos registro cada 15 minutos 39
Estación Fecha / Hora Temperatura Humedad Lluvia Velocidad Dirección Radiación Presion
39 El Carmen 07-05-2026 09:30 9,1 93,5 0 0 161 93,1 984
38 El Carmen 07-05-2026 09:15 8,9 94,1 0 0 161 84,4 984
37 El Carmen 07-05-2026 09:00 8,7 93,9 0 0 177 39,4 984
36 El Carmen 07-05-2026 08:45 8,7 93,7 0 0 177 26,9 984
35 El Carmen 07-05-2026 08:30 8,8 94 0 0 156 16,9 983,8
34 El Carmen 07-05-2026 08:15 8,7 93,9 0 0 152 11,9 983,6
33 El Carmen 07-05-2026 08:00 8,6 93,9 0 0 132 6,9 983,2
32 El Carmen 07-05-2026 07:45 8,6 94 0 0 129 4,4 983,1
31 El Carmen 07-05-2026 07:30 8,6 93,9 0 0 138 0,6 983,1
30 El Carmen 07-05-2026 07:15 8,5 93,8 0 0 160 0,6 983
29 El Carmen 07-05-2026 07:00 8,6 94 0 0 154 0,6 982,9
28 El Carmen 07-05-2026 06:45 8,6 94 0 0 153 0,6 983
27 El Carmen 07-05-2026 06:30 8,6 93,9 0 0,5 153 0,6 983
26 El Carmen 07-05-2026 06:15 8,7 93,7 0 0 163 0,6 982,8
25 El Carmen 07-05-2026 06:00 8,8 93,6 0 0 160 0,6 982,4
24 El Carmen 07-05-2026 05:45 8,8 93,2 0 0 154 0,6 982,4
23 El Carmen 07-05-2026 05:30 8,7 93,2 0 0,5 150 0,6 982,1
22 El Carmen 07-05-2026 05:15 8,8 93,1 0 0,5 150 0,6 981,8
21 El Carmen 07-05-2026 05:00 8,9 93,1 0 0 135 0,6 981,6
20 El Carmen 07-05-2026 04:45 9 92,3 0 0 132 0,6 981,7
19 El Carmen 07-05-2026 04:30 9,1 92,1 0 0 142 0,6 981,6
18 El Carmen 07-05-2026 04:15 9,1 92 0 0 146 0,6 981,3
17 El Carmen 07-05-2026 04:00 9,2 91,6 0 0 142 0,6 981,4
16 El Carmen 07-05-2026 03:45 9,3 91,4 0 0 156 0,6 981,2
15 El Carmen 07-05-2026 03:30 9,4 91,1 0 0 152 0,6 981,3
14 El Carmen 07-05-2026 03:15 9,5 90,8 0 0 168 0,6 981,4
13 El Carmen 07-05-2026 03:00 9,6 90,6 0 0 146 0,6 981,3
12 El Carmen 07-05-2026 02:45 9,6 90,7 0 0,5 138 0,6 981,4
11 El Carmen 07-05-2026 02:30 9,7 90,4 0 0,5 146 0,6 981,2
10 El Carmen 07-05-2026 02:15 9,8 90,6 0 0,5 152 0,6 981,1
9 El Carmen 07-05-2026 02:00 10 91 0 0 152 0,6 980,9
8 El Carmen 07-05-2026 01:45 10 92 0 0 170 0,6 980,9
7 El Carmen 07-05-2026 01:30 10,1 92,6 0 0 159 0,6 980,8
6 El Carmen 07-05-2026 01:15 10,1 92,6 0 0 154 0,6 980,5
5 El Carmen 07-05-2026 01:00 10,2 92,1 0 0 150 0,6 980,3
4 El Carmen 07-05-2026 00:45 10,2 91,5 0 0 154 0,6 980,5
3 El Carmen 07-05-2026 00:30 10,2 91,8 0 0 156 0,6 980,4
2 El Carmen 07-05-2026 00:15 10,3 91,8 0 0 150 0,6 980,5
1 El Carmen 07-05-2026 00:00 10,5 91,3 0 0 163 0,6 980,6